Dewpoint
39 34 31 31 31 30 31 34 25 19 24 23 25 27 32 35 36 36 38 40 41 41 42 42 44 44 42 41 41 42 42 42 44 45 44 44 45 46 47 45 41 38 37 36
35 32 33 35 35 33 33 33 21 18 24 20 19 28 32 34 35 35 36 38 39 40 40 42 44 44 44 42 43 43 42 42 42 43 44 44 45 46 47 47 43 40 37 35
32 35 37 36 33 32 35 27 21 23 25 20 19 28 31 33 34 34 35 38 38 39 38 41 44 44 45 44 44 44 43 43 43 44 45 46 46 46 46 46 46 43 39 36
34 37 36 34 34 33 26 24 21 22 23 16 24 22 29 30 31 32 33 34 35 36 36 37 41 43 45 45 46 45 44 44 44 45 45 45 44 42 44 46 46 45 42 38
33 34 35 32 33 34 30 24 27 22 20 15 21 22 26 29 28 28 31 32 32 33 34 36 39 41 44 46 47 46 45 45 44 45 45 45 44 43 43 43 44 45 45 43
36 38 37 35 36 32 26 25 26 23 17 19 16 21 23 27 28 28 28 29 30 30 31 33 36 40 43 46 47 47 45 46 46 45 45 45 45 44 42 42 41 42 42 43
35 35 33 33 26 24 23 25 23 22 26 19 19 17 14 24 25 28 27 27 28 28 27 29 29 34 39 45 46 47 45 45 46 46 45 44 45 44 43 43 42 40 40 40
30 27 31 30 27 23 21 26 24 19 17 19 19 18 12 21 26 28 27 27 27 26 25 27 31 31 33 40 45 45 44 44 45 45 45 45 45 45 44 43 43 42 41 40
27 28 29 28 28 25 21 22 23 20 19 17 19 18 20 25 30 27 27 27 27 27 31 37 40 40 40 41 42 43 44 44 44 44 44 44 44 44 44 44 44 43 42 42
26 26 28 27 28 26 23 20 19 24 17 12 16 15 18 21 28 28 29 29 31 33 37 39 40 42 43 43 44 44 44 44 44 43 43 43 43 43 43 43 43 42 42 42
25 24 25 26 26 21 20 19 21 20 18 11 10 14 21 23 26 29 29 32 34 37 38 39 37 34 33 34 35 36 37 38 40 41 42 42 43 43 43 43 41 40 40 39
25 24 23 24 29 29 27 21 19 12 11 14 10 12 23 24 27 30 30 33 35 37 37 33 29 28 29 30 31 32 33 34 36 37 38 39 39 39 37 35 34 34 35 35
29 23 22 20 21 26 24 23 20 19 19 15 13 12 27 28 28 30 32 33 36 35 30 27 26 26 27 27 28 30 32 33 33 33 33 33 32 32 31 32 32 33 33 33
31 22 20 20 20 22 21 22 20 19 18 12 10 10 25 27 26 30 32 34 34 30 26 25 24 25 26 26 28 29 30 31 31 31 31 31 31 32 32 33 32 32 31 30
29 25 22 20 23 23 22 20 21 19 17 14 12 10 15 26 26 30 32 32 31 27 24 24 23 24 26 27 28 29 30 30 30 29 30 32 32 32 30 29 27 26 25 24
28 27 23 21 21 19 19 19 19 21 20 18 15 14 15 25 27 29 30 30 29 26 24 24 24 25 25 27 28 29 29 29 30 30 31 30 27 25 25 23 22 21 20 20
25 26 24 19 18 18 16 16 17 19 21 17 14 16 18 22 27 28 29 28 28 26 24 23 25 26 26 27 28 28 29 30 30 28 24 22 21 20 20 20 19 19 19 19
24 23 24 20 13 12 13 15 18 18 19 20 17 20 20 22 25 29 29 28 25 25 24 24 25 26 27 28 29 30 30 29 25 22 20 21 21 20 20 20 20 19 20 21
24 21 18 16 11 12 9 9 15 16 13 20 21 21 22 24 23 25 29 28 25 23 23 24 26 27 28 29 30 30 28 24 21 19 19 20 21 20 20 21 21 22 22 24
22 21 18 14 10 6 3 12 16 16 6 12 15 16 18 24 18 18 27 27 24 23 24 26 27 28 28 28 29 26 22 18 16 19 21 21 20 20 20 20 21 23 24 24
23 22 19 17 13 12 12 15 18 5 8 18 20 24 23 23 23 25 25 24 24 26 27 28 28 27 28 27 24 20 18 15 19 21 21 20 20 20 20 21 22 23 23 23
18 19 19 18 16 13 14 17 9 14 20 21 25 27 24 25 26 25 26 26 27 28 29 28 28 28 26 24 19 17 14 17 17 18 18 17 16 17 18 20 20 20 19 18
11 16 11 17 15 11 15 19 18 20 20 23 25 27 25 25 26 27 28 28 29 29 28 28 27 25 20 18 14 10 12 14 15 15 14 14 14 16 17 17 18 19 20 19
15 18 13 12 12 15 15 17 20 21 22 23 24 26 25 25 27 27 27 28 28 28 27 25 23 18 15 13 14 13 14 14 14 13 13 13 14 15 16 17 19 20 20 19
18 18 15 14 14 16 19 20 19 20 22 23 24 26 25 26 26 27 27 27 27 25 23 20 15 12 12 13 14 14 15 15 14 13 13 13 15 16 16 17 19 20 21 21
19 17 17 15 19 18 21 22 24 23 24 24 23 24 25 26 26 26 26 25 24 22 18 15 14 14 15 16 16 15 15 15 15 14 16 17 18 18 19 20 20 21 23 25
Wind_Speed
11 9 16 20 21 19 24 28 30 31 22 29 23 23 14 18 18 21 23 24 23 21 18 17 15 13 13 12 12 11 10 8 6 5 4 2 2 2 1 2 2 2 1 1
4 17 19 10 7 16 25 28 28 28 15 27 25 21 14 19 20 22 25 25 24 22 20 17 16 15 14 13 12 11 10 8 6 4 2 1 2 2 1 1 1 1 1 1
10 4 9 13 9 13 18 28 25 17 15 26 23 20 14 14 16 17 18 20 21 23 22 20 18 17 14 14 14 12 10 9 7 5 4 3 2 2 2 3 3 4 3 2
6 5 9 13 11 14 14 23 23 22 24 23 25 19 20 21 19 18 19 20 21 22 20 20 19 18 17 15 12 12 11 10 8 7 5 4 2 2 1 1 2 4 5 5
2 2 7 14 10 14 5 3 20 23 27 22 25 9 24 23 22 23 22 21 20 19 19 20 19 18 16 14 13 12 12 10 8 8 6 5 5 3 2 3 5 7 6 6
0 5 3 2 9 13 8 7 2 19 21 16 26 14 25 26 25 22 23 23 21 20 19 17 15 15 15 13 12 12 13 11 10 9 8 7 6 4 4 4 6 7 6 6
3 2 1 3 6 7 11 15 8 11 10 16 10 8 3 25 23 26 26 24 22 20 18 17 16 15 14 14 14 13 13 12 11 10 8 9 7 6 5 6 7 6 6 6
4 4 3 3 3 5 10 11 7 9 10 9 3 11 7 12 6 5 16 21 20 18 16 16 14 13 13 13 13 13 13 13 11 10 9 8 7 6 5 6 7 6 5 5
2 3 2 4 4 4 6 7 4 4 4 12 10 6 6 9 8 11 14 15 17 18 16 15 13 11 11 12 12 12 12 10 10 9 8 8 8 7 6 7 7 6 5 6
3 1 2 2 2 1 1 6 1 3 7 13 10 16 5 14 15 15 16 18 18 17 16 14 13 12 11 11 10 9 8 9 7 6 6 6 6 5 5 7 6 6 7 7
7 3 3 2 3 3 3 6 3 4 4 4 13 15 4 11 17 18 16 17 19 18 16 15 14 12 11 11 10 8 7 6 5 4 4 5 4 4 6 5 4 4 5 6
5 4 3 2 2 4 6 8 9 6 3 2 3 6 2 4 13 16 17 17 17 17 16 15 14 14 13 11 10 9 8 7 6 4 4 3 3 3 3 1 2 3 5 5
8 3 4 3 3 2 3 2 3 7 4 2 5 5 2 6 12 16 18 18 18 18 17 15 14 13 12 11 9 8 7 6 5 4 4 3 3 2 1 2 2 3 5 6
3 4 7 6 1 2 3 4 2 5 4 2 6 8 5 8 15 16 17 17 17 17 17 15 14 13 11 10 8 8 6 5 4 3 4 3 3 3 3 3 4 5 6 7
4 6 5 3 3 3 2 4 6 6 6 4 5 6 8 8 16 18 17 18 18 18 17 16 15 13 11 9 8 6 6 5 4 5 5 4 3 3 4 4 5 6 7 7
2 4 4 3 0 3 7 8 8 10 8 8 8 12 3 9 13 17 17 18 18 19 18 17 14 13 11 9 8 7 6 5 5 6 5 3 3 3 4 5 5 6 7 7
2 3 5 1 1 2 9 18 15 7 9 8 9 3 7 5 12 15 17 19 19 19 19 17 15 12 10 9 8 7 7 6 6 5 4 3 3 3 4 5 6 7 9 10
4 6 3 4 3 5 3 3 2 15 9 15 10 1 2 3 5 8 13 17 18 18 18 16 14 12 10 9 8 8 7 7 5 4 3 3 3 3 5 7 8 9 10 10
4 5 3 3 6 11 5 4 4 7 3 12 15 12 8 1 1 5 9 13 15 16 16 15 13 12 11 10 10 9 7 6 4 3 2 2 3 5 7 8 9 10 10 11
2 6 5 2 4 3 3 4 2 1 5 3 1 5 6 7 10 3 12 11 12 15 15 16 14 12 11 10 9 8 6 5 4 2 2 3 5 7 8 10 10 9 11 12
5 5 12 10 5 7 5 7 4 5 2 1 2 4 6 8 1 5 10 12 12 14 15 15 13 12 10 9 8 7 6 4 3 1 2 5 6 8 9 10 10 11 12 12
7 7 6 7 6 7 9 6 3 4 3 2 2 2 4 6 6 9 11 14 15 15 14 13 13 12 10 8 7 6 4 4 1 2 4 6 8 8 9 12 13 13 13 14
3 4 1 6 3 1 10 1 3 2 4 3 3 3 6 7 8 11 13 13 13 13 12 11 12 12 9 7 4 5 5 1 2 5 7 8 9 10 11 12 13 13 13 14
6 5 5 4 5 13 11 9 6 3 2 2 2 6 7 9 12 12 12 12 11 11 11 10 11 10 9 6 4 3 3 3 4 7 8 9 10 12 12 11 11 12 14 15
1 9 6 8 14 7 8 7 6 10 7 3 3 5 8 11 11 12 11 11 11 11 9 9 9 8 8 5 3 2 1 3 6 8 9 10 9 12 13 13 13 14 15 17
11 9 9 3 2 2 5 4 2 6 7 7 7 8 7 8 10 11 11 10 11 11 10 9 8 8 6 3 1 1 2 4 6 9 8 9 11 12 13 15 16 15 20 23
Wind_Direction
188 195 209 225 221 232 250 243 199 199 187 197 206 214 181 180 183 175 172 171 172 173 170 165 163 164 166 169 167 165 173 165 175 167 175 193 172 114 154 101 87 63 33 33
191 231 230 229 250 237 242 240 197 199 165 194 202 211 182 182 182 178 174 175 174 170 171 169 173 174 179 177 179 177 180 172 194 164 131 69 89 88 21 122 166 185 252 357
215 302 213 202 219 254 243 216 192 171 186 201 185 193 181 184 184 180 182 177 172 177 174 177 179 184 183 186 187 183 181 181 183 151 142 154 123 192 186 190 211 222 234 211
265 276 232 226 220 236 221 207 188 175 179 182 187 191 199 184 184 187 184 182 183 182 181 179 183 187 189 192 183 187 179 181 184 167 184 196 235 241 114 224 229 228 228 224
294 246 251 217 201 218 243 206 217 174 194 174 191 238 188 178 194 192 188 189 188 181 184 183 187 191 191 185 183 179 181 185 180 183 199 194 219 210 210 235 248 247 234 234
279 217 293 271 189 238 271 178 196 191 205 188 189 203 178 191 197 186 190 188 187 180 183 183 182 184 188 180 177 181 184 188 187 193 198 208 219 219 223 237 249 249 239 233
314 48 6 203 217 176 214 169 162 168 195 188 183 203 63 180 193 194 186 187 183 179 177 178 178 184 184 180 185 183 187 192 194 201 204 213 221 233 243 257 258 263 262 251
344 133 29 337 239 208 193 191 160 191 165 153 165 210 124 107 100 83 173 177 170 169 178 171 176 179 179 181 187 184 190 199 198 204 213 214 220 234 244 256 260 263 270 279
302 46 14 5 336 326 183 207 108 295 287 160 172 170 127 146 146 145 145 151 164 168 161 157 152 157 157 166 177 182 189 193 204 209 214 218 220 227 244 249 247 258 272 272
330 109 32 22 304 72 263 133 45 220 209 170 178 188 167 179 173 161 160 164 161 157 154 148 144 142 141 141 148 162 179 187 197 209 218 228 228 231 243 249 257 268 274 270
305 292 112 305 360 342 168 206 204 277 297 214 165 194 27 180 176 167 162 159 158 157 155 149 141 140 138 136 136 145 154 159 167 193 208 214 220 229 242 255 275 288 299 294
10 311 203 148 342 314 307 322 312 253 236 304 315 133 43 103 166 163 159 156 157 154 150 147 145 146 141 137 136 137 130 122 122 132 136 133 156 193 219 266 333 327 308 312
359 256 194 185 246 237 277 314 326 304 345 299 305 91 109 131 160 164 160 158 156 151 150 150 148 147 146 145 144 133 132 132 134 130 134 153 162 156 88 41 10 350 338 333
305 298 294 263 0 348 208 224 223 299 299 57 49 74 148 159 169 167 164 161 160 158 155 155 159 158 153 149 146 145 139 136 134 140 157 148 113 88 60 35 11 359 348 331
350 307 330 324 13 284 273 271 216 221 262 295 31 21 54 160 175 172 168 169 166 163 165 169 169 162 158 152 148 142 142 147 149 151 139 114 96 57 29 15 0 349 339 328
263 296 312 276 342 327 279 267 246 234 264 279 282 299 165 130 156 171 177 175 175 173 176 177 169 162 160 156 158 153 156 146 151 139 124 102 65 43 21 4 346 330 321 317
219 290 326 292 278 259 254 248 225 212 211 232 237 332 128 154 175 181 183 183 186 183 180 175 171 167 162 164 162 163 151 146 141 131 106 83 50 29 8 337 325 322 321 322
233 214 204 292 239 231 228 19 323 225 230 228 252 330 30 63 171 205 193 189 190 183 177 172 170 164 160 152 149 141 149 149 143 125 108 66 29 353 333 327 323 320 320 317
244 244 239 249 241 288 203 224 169 183 251 228 242 253 233 139 210 214 202 191 189 176 170 169 161 159 152 153 153 154 150 143 132 119 89 34 349 326 325 318 317 313 311 307
249 250 257 210 257 269 60 141 168 174 249 121 326 267 267 182 226 163 171 174 161 152 156 149 144 144 149 149 151 148 141 144 141 96 31 326 322 316 312 312 307 303 297 297
179 215 226 238 271 283 112 135 154 182 122 352 315 290 249 202 328 92 129 142 140 137 138 136 142 146 140 136 138 139 143 146 96 49 321 312 306 302 302 300 298 296 293 288
197 191 202 211 230 263 146 126 205 89 104 49 359 335 193 136 94 116 121 126 132 133 136 139 133 127 127 130 137 135 130 101 89 309 298 299 303 304 296 290 293 292 295 297
239 230 291 227 239 71 192 46 113 74 87 70 42 123 145 134 130 131 132 134 135 136 134 136 137 134 130 124 115 124 101 63 330 312 312 313 308 297 288 291 295 300 302 297
234 209 238 315 209 241 230 223 226 191 131 78 78 151 151 137 142 140 137 137 135 134 134 133 135 136 129 123 110 85 46 354 323 313 308 305 297 302 303 300 296 291 288 289
311 165 223 253 271 241 237 216 226 223 208 188 135 163 163 148 147 147 144 141 135 129 127 133 131 128 123 115 101 77 354 326 305 299 300 303 305 308 307 300 294 291 284 283
189 200 194 257 102 49 94 106 155 194 191 181 158 149 152 157 149 145 141 138 137 132 127 122 121 129 131 130 97 349 323 302 299 302 311 311 309 302 300 298 296 284 283 285